Location: Dumpton Point
(51.3500°N, 1.4433°E)
Time: 11:29:06
(UTC+00:00)

Envisat - Pass Details

Date: 14 December 2021
Orbit: 764 x 766 km, 98.2° (Epoch: 23 January)

Event Time Altitude Azimuth Distance (km) Brightness Sun altitude
Rises 17:18:20 0° 211° (SSW) 3,223 7.1 -13.4°
Reaches altitude 10° 17:21:23 10° 231° (SW) 2,303 6.7 -13.8°
Maximum altitude 17:24:45 18° 272° (W) 1,839 5.9 -14.3°
Drops below altitude 10° 17:28:07 10° 314° (NW) 2,314 5.8 -14.8°
Sets 17:31:13 0° 334° (NNW) 3,246 6.4 -15.3°
